Location: Beuvrequen
(50.8014°N, 1.6652°E)
Time: 02:36:36
(UTC+00:00)

H-2A R/B - Pass Details

Date: 16 October 2021
Orbit: 577 x 654 km, 98.5° (Epoch: 28 November)

Event Time Altitude Azimuth Distance (km) Brightness Sun altitude
Rises 18:12:38 0° 23° (NNE) 2,806 5.2 -12.4°
Reaches altitude 10° 18:15:01 10° 35° (NE) 1,902 4.2 -12.8°
Maximum altitude 18:18:38 29° 97° (E) 1,070 2.7 -13.4°
Drops below altitude 10° 18:22:15 10° 158° (SSE) 1,901 4.3 -13.9°
Sets 18:24:37 0° 170° (S) 2,804 5.3 -14.3°
